Wetbulb
62.85 62.12 61.66 60.44 59.28 58.44 56.97 55.70 55.51 55.92 55.11 56.12 57.55 58.76 57.83 57.30 57.45 58.14 58.21 61.22 61.39 61.89 61.43 61.27 60.61 59.95 58.75 58.10 58.08 57.76 57.20 56.70 56.48 56.02 55.63 54.80 54.30 53.42 53.09 52.85 52.71 52.67 52.56
62.48 61.79 59.67 58.81 58.00 57.19 55.39 55.76 56.29 55.62 55.21 55.79 57.12 59.02 58.09 57.68 57.37 57.62 57.80 58.21 60.44 61.32 61.23 60.85 60.76 60.10 59.31 58.17 57.61 57.76 57.13 56.62 56.07 55.57 55.08 54.24 53.40 52.58 52.12 51.64 51.44 51.10 50.96
61.68 61.92 59.57 58.44 58.97 57.68 55.56 55.62 56.23 57.06 55.46 57.37 56.86 58.08 58.64 57.53 57.36 57.51 57.51 57.23 58.51 59.73 60.72 61.28 60.63 60.19 59.75 58.68 57.89 57.33 57.35 56.72 56.06 55.56 54.81 53.91 52.99 52.11 51.39 50.78 50.25 49.97 49.71
61.30 61.99 60.63 58.66 59.83 58.33 57.74 56.78 57.48 56.10 55.52 55.75 55.17 55.73 57.36 57.34 57.00 57.18 57.41 57.41 57.32 57.77 59.31 60.63 61.07 60.88 60.15 59.60 58.72 58.15 57.48 57.32 56.53 56.05 55.32 54.43 53.49 52.48 51.59 50.68 50.03 49.55 49.11
60.88 61.80 61.17 59.94 60.02 58.69 58.89 58.57 56.62 55.79 54.60 54.37 55.08 54.54 55.00 56.36 56.69 57.36 56.63 56.75 56.89 57.21 57.25 59.50 59.91 60.07 60.43 60.33 59.71 59.16 58.54 57.50 57.41 56.85 56.07 55.44 54.34 53.19 52.11 51.26 50.43 49.98 49.59
60.07 60.86 60.83 60.31 60.31 59.28 57.98 56.95 56.53 54.89 54.92 55.51 57.16 55.23 53.88 54.41 55.93 55.95 56.44 57.00 56.60 57.03 57.11 57.13 58.28 57.84 59.12 60.33 60.65 59.99 60.12 59.16 58.19 57.67 57.13 56.42 55.63 54.59 53.25 52.16 51.30 50.77 50.41
59.25 57.79 59.21 58.85 58.02 58.51 57.94 57.03 56.07 54.86 53.41 54.16 52.27 51.66 51.54 52.88 53.29 53.72 54.95 56.63 56.46 57.07 57.02 56.98 57.21 57.30 57.81 59.43 60.72 60.50 60.96 60.86 59.88 58.58 58.12 57.14 56.57 55.70 54.70 53.38 52.31 51.73 51.32
58.32 57.40 57.75 57.41 57.43 57.70 56.74 55.78 55.15 54.33 54.17 54.35 51.67 49.96 46.53 48.30 49.96 51.99 51.77 53.03 54.88 57.21 57.47 57.49 57.16 57.19 57.05 57.51 57.77 60.59 61.10 61.32 61.03 60.36 58.77 58.03 57.20 56.49 55.91 55.08 54.14 53.19 52.68
57.85 57.70 57.54 57.05 56.80 57.07 56.29 54.92 54.11 54.16 52.73 53.38 52.50 49.48 45.49 44.90 46.58 48.87 50.60 50.85 51.37 51.99 55.24 57.70 57.93 57.59 57.35 56.99 57.61 58.15 58.12 58.60 61.11 61.75 60.91 59.77 59.06 57.38 56.71 56.33 55.83 54.96 54.17
56.93 57.07 57.54 57.31 56.77 56.94 56.43 55.38 55.86 55.64 53.77 51.94 51.09 53.33 51.57 51.89 48.82 47.48 50.04 50.43 51.22 52.11 52.33 53.26 57.41 57.91 57.74 57.28 57.17 56.44 55.18 55.48 57.43 60.40 61.34 61.16 60.04 59.40 58.45 57.19 56.75 56.42 55.73
56.69 56.70 57.13 56.94 55.76 55.85 56.52 56.77 56.38 56.51 56.48 54.20 51.46 50.28 50.21 51.91 52.70 50.38 48.25 49.46 51.29 52.32 52.78 53.06 53.82 55.53 57.60 57.79 57.31 56.74 53.77 53.67 54.85 57.67 59.73 60.52 61.12 60.31 59.56 59.02 58.64 57.75 57.13
57.03 56.73 57.02 57.53 56.72 55.90 55.86 57.93 57.75 57.05 56.68 56.52 55.30 54.28 53.09 51.53 51.30 51.09 49.12 49.07 49.31 50.34 52.89 53.16 52.97 53.50 53.31 53.77 54.96 54.82 53.05 52.34 53.14 55.34 57.41 58.82 59.67 60.37 60.14 59.67 59.34 58.19 58.26
56.79 57.57 56.74 55.79 56.86 57.32 56.31 57.40 58.30 58.19 57.23 57.13 56.70 56.32 56.29 55.95 55.35 53.85 52.33 51.33 50.33 51.66 50.97 51.53 54.16 54.23 53.63 52.58 52.92 52.22 52.82 50.92 51.41 53.32 54.98 56.41 57.27 58.14 58.81 59.02 59.04 58.72 58.29
55.97 58.23 58.14 57.20 56.89 57.95 58.30 58.53 58.14 58.35 58.50 58.06 57.11 56.77 57.12 56.98 56.40 55.18 53.29 51.39 48.00 49.30 50.36 50.84 51.49 52.17 52.33 51.56 51.84 50.55 52.59 48.56 47.87 48.95 50.77 52.41 53.86 54.99 55.52 55.66 55.76 55.50 54.96
55.89 56.54 58.18 57.60 57.26 57.58 58.33 58.79 58.45 57.47 57.83 57.68 56.94 57.21 56.53 56.23 56.90 57.28 56.21 55.03 52.47 48.25 48.08 49.95 50.00 51.57 53.07 52.84 51.79 50.53 52.00 49.85 48.36 47.55 48.15 49.48 51.00 51.62 51.40 51.38 51.41 51.67 51.51
55.17 55.74 57.53 57.78 57.54 57.42 58.27 58.56 58.51 59.00 57.87 57.43 57.71 56.93 57.33 57.26 56.87 57.74 57.28 56.20 54.93 53.62 50.25 51.36 51.80 51.69 52.33 52.15 51.86 52.00 51.51 50.11 47.57 46.83 46.37 46.67 46.96 48.03 48.58 48.64 49.01 49.38 49.67
54.97 54.78 56.46 57.52 57.99 57.59 57.45 58.23 58.79 58.57 57.76 57.53 57.50 57.23 56.91 57.37 56.64 56.72 56.57 56.28 55.06 54.75 52.40 53.86 51.89 50.64 49.01 50.57 49.47 49.83 50.16 49.80 49.78 45.95 45.20 45.27 45.06 45.27 45.44 46.00 46.34 46.86 47.01
55.77 55.37 55.22 56.31 57.45 57.94 57.79 57.13 57.09 58.30 57.59 56.72 56.77 56.62 56.11 56.97 56.36 56.78 56.24 55.79 55.86 55.86 54.22 52.84 54.19 48.13 48.44 46.76 47.59 46.89 48.52 49.21 48.50 47.26 45.55 44.93 44.14 43.41 43.20 43.47 43.40 43.63 43.88
56.76 56.67 56.06 55.18 55.54 56.23 56.92 57.74 57.81 57.62 57.84 57.68 57.28 56.56 56.52 55.99 55.62 56.40 56.26 55.96 55.71 55.68 56.11 54.55 53.93 47.68 47.88 44.00 44.66 44.94 45.93 47.00 47.76 47.45 44.04 43.49 43.23 43.25 42.72 42.36 42.23 42.06 41.60
57.09 56.87 57.07 56.63 56.25 56.37 56.49 56.54 57.01 57.38 57.48 57.47 57.13 56.79 56.75 56.36 55.71 55.59 55.03 54.67 55.00 55.11 55.15 54.35 53.86 46.52 43.76 43.21 45.32 44.11 42.24 44.69 44.31 46.48 45.68 43.81 43.47 43.17 42.49 41.90 41.30 40.90 39.84
57.68 57.83 57.54 57.32 57.09 56.44 56.58 56.65 56.67 56.36 56.27 56.14 56.52 56.54 56.37 54.86 50.79 52.88 55.61 55.08 54.65 54.48 54.81 54.22 52.48 43.88 42.29 39.15 41.12 43.22 43.18 41.93 42.53 43.85 43.25 43.64 42.63 41.95 41.69 41.49 40.21 40.00 39.77
57.65 58.04 57.26 57.70 57.75 57.52 50.77 46.41 52.54 56.10 55.99 55.60 55.20 55.58 55.71 49.42 49.18 45.69 45.44 47.15 52.63 54.30 54.08 53.11 51.86 49.63 46.15 44.51 42.26 40.66 38.99 36.40 35.68 41.61 39.99 38.04 39.02 36.37 37.32 36.96 38.55 38.14 38.79
58.58 58.07 58.19 58.53 57.85 58.25 48.20 45.97 44.99 55.80 55.77 55.30 55.09 54.96 54.97 54.96 49.61 53.00 38.59 38.31 38.08 38.25 37.67 51.64 52.46 47.43 38.59 38.20 38.88 36.75 35.25 34.57 33.70 35.69 34.29 31.62 33.15 31.94 34.80 36.41 37.61 37.49 36.68
58.52 58.37 58.46 58.51 58.72 59.02 48.58 46.94 44.10 52.68 56.12 56.65 56.44 55.99 55.59 53.81 49.88 44.49 37.93 33.67 32.32 32.44 33.26 34.79 33.74 32.00 32.10 33.98 34.34 34.37 32.79 32.01 32.16 32.47 32.96 28.95 31.83 30.05 32.67 33.41 35.79 36.96 36.88
58.43 58.29 58.80 58.60 58.43 58.41 45.48 44.84 44.46 52.57 53.52 39.86 37.58 39.41 41.96 41.45 38.79 39.58 34.86 30.65 29.25 29.34 32.40 32.73 31.93 31.32 30.99 32.06 33.08 31.60 29.55 29.05 28.21 28.20 30.33 29.14 28.22 27.61 28.52 28.83 31.25 32.76 32.46
57.77 57.68 47.34 41.11 38.57 43.53 38.06 41.03 44.08 46.22 35.62 32.87 32.99 33.75 34.98 35.67 35.41 34.92 31.99 29.95 27.14 26.89 27.88 28.36 29.22 30.10 30.81 30.97 30.53 29.62 29.25 27.02 27.16 25.70 27.38 25.23 25.45 25.08 21.76 25.17 26.00 26.70 26.69
MSLP
1015.58 1016.51 1017.39 1017.99 1018.33 1018.97 1019.29 1019.70 1019.80 1020.08 1020.47 1020.68 1020.59 1021.38 1022.09 1022.36 1022.72 1023.29 1023.88 1024.17 1024.78 1025.22 1025.59 1025.88 1026.27 1026.53 1026.82 1027.09 1027.20 1027.49 1027.64 1027.96 1028.11 1028.40 1028.51 1028.66 1028.77 1028.90 1029.14 1029.32 1029.36 1029.48 1029.53
1015.65 1016.17 1017.10 1017.59 1018.42 1018.86 1019.31 1019.51 1019.77 1020.11 1020.51 1020.75 1020.88 1021.10 1021.79 1022.43 1022.79 1023.36 1023.71 1024.32 1024.84 1025.11 1025.56 1025.89 1026.24 1026.53 1026.79 1027.12 1027.40 1027.56 1027.68 1027.93 1028.11 1028.39 1028.63 1028.80 1029.04 1029.21 1029.35 1029.56 1029.70 1029.79 1029.83
1015.43 1016.01 1016.56 1017.33 1018.06 1018.56 1019.00 1019.50 1019.91 1020.15 1020.57 1020.71 1020.97 1021.29 1021.79 1022.44 1023.01 1023.42 1023.73 1024.33 1024.75 1024.99 1025.38 1025.80 1026.12 1026.43 1026.79 1027.13 1027.41 1027.63 1027.75 1028.00 1028.14 1028.44 1028.61 1028.94 1029.11 1029.27 1029.41 1029.52 1029.77 1029.85 1030.05
1015.23 1015.90 1016.49 1016.88 1017.59 1018.20 1018.64 1019.15 1019.58 1019.98 1020.47 1020.71 1021.10 1021.45 1021.74 1022.32 1022.96 1023.47 1023.66 1024.11 1024.64 1024.96 1025.26 1025.69 1026.03 1026.21 1026.49 1026.78 1027.08 1027.32 1027.48 1027.76 1027.98 1028.37 1028.46 1028.62 1028.89 1029.03 1029.18 1029.29 1029.48 1029.74 1029.89
1015.08 1015.66 1016.09 1016.47 1017.01 1017.68 1018.20 1018.76 1019.18 1019.57 1020.35 1020.80 1021.14 1021.48 1021.65 1022.22 1022.83 1023.27 1023.71 1024.04 1024.37 1024.55 1024.94 1025.33 1025.65 1025.88 1026.18 1026.37 1026.64 1026.86 1027.15 1027.34 1027.67 1027.86 1028.13 1028.30 1028.54 1028.68 1028.89 1029.12 1029.30 1029.54 1029.64
1015.06 1015.29 1015.64 1016.17 1016.72 1017.54 1018.01 1018.37 1018.84 1019.44 1020.05 1020.64 1021.08 1021.53 1021.87 1022.19 1022.61 1023.08 1023.39 1023.79 1024.12 1024.36 1024.67 1024.96 1025.29 1025.60 1025.77 1025.96 1026.10 1026.31 1026.49 1026.77 1027.09 1027.42 1027.60 1027.82 1028.16 1028.32 1028.47 1028.65 1028.77 1029.00 1029.25
1014.68 1014.95 1015.17 1015.80 1016.57 1017.35 1017.64 1018.09 1018.54 1019.31 1020.05 1020.40 1021.23 1021.76 1022.34 1022.22 1022.43 1022.56 1022.99 1023.18 1023.63 1023.86 1024.20 1024.45 1024.81 1025.10 1025.35 1025.53 1025.67 1025.76 1025.85 1026.03 1026.32 1026.47 1026.94 1027.22 1027.42 1027.81 1028.01 1028.20 1028.46 1028.85 1028.98
1014.20 1014.47 1014.88 1015.57 1016.52 1016.94 1017.61 1017.80 1018.12 1019.16 1019.63 1019.99 1020.97 1021.86 1022.67 1022.91 1022.61 1022.42 1022.45 1022.81 1022.99 1023.22 1023.51 1023.82 1024.18 1024.32 1024.60 1024.85 1025.05 1025.17 1025.13 1025.12 1025.26 1025.55 1025.91 1026.20 1026.61 1027.03 1027.36 1027.58 1027.76 1028.12 1028.29
1013.97 1014.20 1014.80 1015.79 1016.52 1017.24 1017.84 1017.57 1017.86 1018.64 1019.48 1019.93 1019.99 1020.96 1022.21 1022.52 1022.44 1022.38 1022.34 1022.29 1022.54 1022.90 1023.02 1023.09 1023.32 1023.52 1023.81 1023.99 1024.12 1024.26 1024.41 1024.37 1024.29 1024.42 1024.73 1025.12 1025.50 1025.86 1026.33 1026.73 1026.97 1027.14 1027.42
1013.89 1014.13 1015.02 1015.70 1016.36 1016.71 1016.77 1017.24 1017.66 1018.41 1019.60 1020.03 1020.39 1020.28 1020.48 1021.04 1021.93 1022.50 1022.20 1022.16 1022.11 1022.34 1022.43 1022.64 1022.65 1022.75 1022.88 1022.99 1023.15 1023.02 1022.86 1023.16 1023.41 1023.43 1023.59 1023.94 1024.28 1024.61 1025.05 1025.61 1025.95 1026.24 1026.58
1013.81 1014.04 1014.39 1015.00 1015.63 1016.05 1016.58 1017.02 1017.61 1018.25 1018.78 1019.34 1019.74 1020.01 1020.39 1020.79 1021.15 1021.76 1022.16 1021.87 1021.93 1021.74 1021.62 1021.69 1021.73 1021.97 1021.94 1021.94 1022.03 1022.07 1022.21 1022.22 1022.43 1022.67 1022.83 1023.07 1023.38 1023.71 1023.97 1024.34 1024.75 1025.10 1025.42
1013.79 1013.98 1014.29 1014.77 1015.22 1015.95 1016.43 1016.89 1017.30 1017.69 1017.97 1018.67 1019.05 1019.37 1019.65 1020.12 1020.53 1021.01 1021.51 1021.46 1021.32 1021.21 1020.93 1020.94 1021.04 1020.96 1020.96 1021.17 1021.16 1021.06 1021.12 1021.31 1021.41 1021.67 1021.89 1021.99 1022.31 1022.55 1022.93 1023.25 1023.71 1024.18 1024.35
1013.71 1014.04 1014.36 1014.83 1015.17 1015.47 1015.98 1016.41 1016.85 1017.12 1017.36 1018.25 1018.49 1018.80 1018.88 1019.16 1019.46 1019.99 1020.49 1020.83 1020.95 1020.77 1020.70 1020.39 1020.15 1020.16 1020.28 1020.42 1020.39 1020.46 1020.52 1020.57 1020.46 1020.55 1020.78 1021.11 1021.62 1021.84 1022.08 1022.41 1022.77 1023.16 1023.37
1013.05 1013.48 1013.78 1014.33 1014.91 1015.29 1015.71 1015.97 1016.41 1016.77 1017.08 1017.56 1017.82 1018.11 1018.23 1018.46 1018.63 1019.01 1019.60 1020.11 1020.52 1020.54 1020.58 1020.06 1019.65 1019.69 1019.59 1019.62 1019.65 1019.86 1020.23 1020.41 1020.85 1021.17 1021.39 1021.70 1021.96 1022.06 1022.16 1022.26 1022.48 1022.74 1023.00
1012.66 1013.17 1013.62 1014.08 1014.43 1014.81 1015.17 1015.38 1015.77 1016.25 1016.48 1016.80 1017.17 1017.30 1017.61 1017.73 1017.94 1017.71 1018.51 1018.78 1019.45 1019.96 1019.77 1019.44 1019.63 1018.77 1018.68 1018.84 1018.83 1019.11 1019.37 1019.54 1019.93 1020.34 1020.71 1020.88 1021.09 1021.40 1021.69 1021.86 1022.08 1022.12 1022.23
1012.13 1012.54 1012.88 1013.31 1013.79 1014.21 1014.54 1014.88 1015.14 1015.33 1015.75 1016.13 1016.32 1016.55 1016.69 1016.89 1017.08 1017.32 1017.52 1017.92 1018.18 1018.42 1018.42 1018.35 1018.21 1017.84 1017.73 1017.93 1017.98 1018.25 1018.48 1018.70 1018.82 1019.04 1019.42 1020.13 1020.51 1020.71 1020.80 1020.93 1021.01 1021.25 1021.56
1011.36 1011.64 1011.98 1012.34 1012.68 1013.10 1013.44 1013.86 1014.04 1014.30 1014.67 1015.13 1015.34 1015.55 1015.65 1015.82 1016.15 1016.39 1016.61 1016.78 1017.11 1017.26 1017.14 1016.94 1017.12 1017.32 1017.64 1017.56 1017.73 1017.86 1018.07 1018.28 1018.38 1018.39 1018.43 1018.86 1019.46 1019.81 1020.04 1020.27 1020.65 1020.98 1021.13
1010.55 1010.70 1011.15 1011.50 1011.83 1012.08 1012.46 1012.60 1012.82 1013.13 1013.60 1013.94 1014.10 1014.58 1014.51 1014.82 1015.12 1015.24 1015.43 1015.67 1015.76 1015.75 1016.13 1015.85 1016.19 1016.58 1016.92 1017.08 1017.20 1017.52 1017.50 1017.74 1017.87 1017.89 1017.86 1017.75 1018.35 1018.93 1019.44 1019.84 1020.10 1020.46 1020.91
1009.56 1009.87 1010.16 1010.21 1010.45 1010.84 1011.27 1011.57 1011.73 1012.05 1012.19 1012.47 1012.82 1013.18 1013.09 1013.74 1013.85 1013.89 1014.18 1014.49 1014.60 1014.76 1014.89 1015.06 1015.07 1015.67 1015.90 1016.30 1016.85 1016.99 1016.93 1017.10 1017.26 1017.27 1017.50 1017.59 1017.64 1018.42 1018.89 1019.26 1019.76 1020.13 1020.62
1008.57 1008.84 1008.86 1009.00 1009.36 1009.70 1009.96 1010.17 1010.35 1010.67 1010.97 1011.19 1011.55 1011.74 1011.88 1012.25 1012.36 1012.63 1013.11 1013.26 1013.37 1013.69 1013.87 1014.11 1014.27 1015.01 1015.51 1015.69 1016.05 1016.25 1016.41 1016.22 1016.29 1016.41 1016.76 1017.08 1017.18 1017.58 1018.45 1018.69 1019.07 1019.46 1019.84
1007.20 1007.56 1007.84 1007.89 1008.20 1008.44 1008.43 1008.72 1009.04 1009.44 1009.90 1010.18 1010.27 1010.41 1010.60 1010.77 1010.96 1011.25 1011.80 1012.07 1012.47 1012.70 1012.91 1012.98 1013.22 1013.87 1014.52 1015.16 1015.01 1014.96 1015.08 1015.42 1015.52 1015.79 1016.57 1016.55 1017.25 1017.54 1017.77 1018.05 1018.34 1018.52 1018.91
1006.05 1006.44 1006.35 1006.51 1006.84 1006.75 1006.81 1007.28 1007.77 1008.21 1008.44 1008.74 1008.78 1009.05 1009.32 1009.60 1009.83 1010.20 1010.56 1010.69 1010.85 1011.35 1011.76 1012.05 1012.16 1012.44 1012.82 1013.12 1013.68 1014.24 1014.85 1015.40 1015.92 1015.93 1016.14 1017.07 1016.88 1016.97 1017.24 1017.77 1018.06 1018.17 1018.30
1004.37 1004.74 1004.98 1005.34 1005.34 1005.45 1005.73 1006.33 1006.73 1007.03 1007.24 1007.39 1007.63 1007.97 1008.22 1008.35 1008.75 1009.38 1010.25 1010.80 1011.26 1011.31 1011.18 1010.97 1011.10 1011.63 1012.42 1012.82 1013.45 1014.24 1014.69 1014.94 1015.63 1016.50 1016.92 1017.46 1017.43 1017.50 1017.48 1017.73 1017.91 1017.95 1018.04
1002.85 1003.05 1003.41 1003.82 1004.20 1004.05 1004.47 1005.07 1005.72 1006.23 1006.12 1006.14 1006.48 1006.66 1006.98 1007.46 1008.04 1008.82 1010.11 1011.24 1012.04 1012.24 1012.04 1011.89 1012.36 1012.95 1013.26 1013.67 1014.17 1014.77 1015.18 1016.34 1016.76 1016.50 1016.66 1017.71 1018.09 1018.04 1017.59 1017.94 1018.23 1018.14 1018.04
1001.40 1001.75 1002.15 1002.89 1003.10 1003.01 1003.39 1003.68 1004.66 1005.19 1005.81 1006.71 1007.37 1007.45 1007.40 1007.57 1007.99 1008.64 1010.06 1011.30 1012.39 1013.25 1013.43 1013.20 1013.23 1013.67 1014.43 1014.88 1014.89 1015.50 1016.49 1017.23 1017.12 1018.28 1017.85 1017.51 1018.08 1018.32 1018.00 1017.85 1017.94 1018.37 1018.33
1000.01 1000.86 1001.79 1002.47 1003.05 1003.04 1003.46 1003.46 1004.04 1004.48 1005.93 1007.08 1007.97 1008.21 1008.14 1008.13 1008.60 1009.13 1009.84 1011.11 1012.49 1013.55 1013.92 1014.15 1014.50 1014.43 1014.64 1015.22 1016.03 1016.51 1017.17 1017.67 1018.75 1018.91 1018.91 1018.86 1018.96 1019.03 1018.76 1018.17 1018.34 1018.62 1018.71
Wind_Speed
10 10 8 8 7 6 6 6 4 4 4 4 4 10 11 10 11 7 5 14 14 15 15 15 14 14 13 13 13 12 12 11 11 10 10 10 10 10 9 9 9 9 9
8 10 10 9 6 7 6 7 5 4 5 4 3 9 11 11 11 10 7 7 13 14 14 14 14 14 13 13 11 12 11 10 9 8 9 8 8 7 8 7 7 6 6
10 11 10 10 8 7 10 5 5 6 4 4 4 7 10 10 10 11 9 6 8 12 13 13 14 14 13 12 12 11 10 10 9 8 8 8 7 7 7 6 5 5 4
10 10 9 10 9 8 8 7 6 7 5 5 3 4 8 9 10 10 9 8 7 6 9 13 14 14 15 15 14 13 12 11 11 11 10 10 10 9 8 7 7 6 5
10 10 9 9 10 8 6 7 5 7 6 4 4 3 4 7 10 8 10 9 9 8 6 11 14 14 16 16 17 15 15 13 14 14 13 13 13 11 10 9 8 8 7
6 8 8 8 7 8 6 7 8 3 6 7 7 4 3 5 7 8 10 8 9 9 9 10 9 9 15 18 18 18 18 17 17 16 16 16 15 14 14 13 12 11 11
8 7 8 7 5 8 9 11 6 6 3 5 4 3 0 4 6 5 7 9 10 11 10 9 7 7 8 18 18 21 20 20 20 20 19 19 18 17 17 16 14 13 14
9 6 8 7 3 7 3 6 6 3 3 5 4 4 2 2 3 5 3 7 11 10 11 12 12 12 10 9 13 22 23 23 23 23 23 22 21 20 20 18 17 18 18
9 8 11 11 5 7 9 6 6 7 4 2 5 6 3 5 1 2 7 4 6 5 8 12 12 13 13 10 14 18 23 22 24 24 25 24 23 24 23 22 22 22 21
7 9 11 10 10 5 6 5 5 5 5 5 1 3 3 5 4 1 1 4 6 7 7 5 10 12 13 11 16 20 24 25 25 26 26 26 27 26 25 25 24 24 24
7 7 7 7 6 4 5 7 7 9 5 4 4 3 2 1 2 3 3 3 2 5 6 8 9 9 13 13 12 15 21 25 28 28 27 27 26 27 27 26 26 26 26
7 8 8 7 6 6 6 5 7 9 8 5 4 4 5 4 4 4 2 4 6 5 8 7 8 9 7 8 11 16 19 24 25 27 28 29 27 27 27 26 26 27 26
5 6 6 5 4 7 7 7 8 7 7 8 7 5 4 4 3 3 4 4 5 5 4 5 9 8 8 7 8 10 14 21 24 26 28 27 25 24 23 22 22 22 21
7 9 10 10 8 7 8 8 6 8 9 10 9 6 6 6 4 5 5 4 2 4 4 7 4 8 8 7 10 8 8 7 2 3 6 11 14 15 14 11 11 13 16
9 7 11 11 11 11 8 9 7 8 7 8 9 9 7 6 4 7 6 6 7 6 6 5 5 7 8 7 9 6 7 12 16 15 14 14 14 12 12 12 13 13 15
14 13 11 13 13 12 10 9 10 9 9 8 9 10 10 8 7 8 9 8 7 10 11 6 8 7 7 6 7 8 9 11 15 16 15 14 14 16 16 16 15 15 11
17 17 13 13 13 14 15 15 14 14 14 14 13 13 15 14 10 9 8 9 10 9 13 10 5 6 5 7 4 6 6 8 7 15 15 16 17 17 15 14 12 12 11
17 18 18 16 16 16 16 18 18 15 15 16 16 16 16 11 13 13 10 14 12 12 11 18 11 6 9 6 6 7 7 7 7 11 17 19 18 15 14 13 12 10 9
18 18 18 21 21 20 19 18 17 17 18 18 17 16 18 15 15 13 13 12 11 10 12 12 13 2 4 3 4 4 6 8 7 10 14 15 14 13 13 13 12 11 11
18 20 20 20 20 20 20 21 21 19 19 19 18 18 18 18 18 17 14 14 13 11 11 11 12 5 4 3 6 5 6 8 8 8 7 5 9 13 16 14 13 13 14
18 18 19 20 20 20 17 21 21 21 21 21 20 19 18 19 20 19 12 15 13 12 12 12 12 4 6 4 9 7 10 6 6 4 1 3 3 4 7 11 12 15 13
21 18 22 20 20 17 22 21 21 19 21 20 19 18 16 15 18 19 20 20 16 16 17 12 12 13 14 10 5 6 5 3 3 0 4 1 2 3 3 3 7 9 9
20 23 22 20 23 21 18 19 23 20 16 16 16 15 13 12 13 11 8 11 9 9 7 13 17 8 3 4 6 4 2 2 4 2 4 1 1 1 1 1 4 6 6
20 20 21 22 20 19 19 20 19 17 17 18 16 16 16 12 9 11 9 9 10 11 8 7 11 9 9 9 9 5 6 5 5 4 4 2 3 3 4 2 6 4 3
18 18 17 18 20 20 13 19 16 14 13 4 5 4 2 5 10 17 13 14 12 12 18 26 27 26 25 23 15 8 7 5 3 3 4 2 1 3 1 2 2 8 11
18 13 4 5 7 4 5 4 12 5 8 6 6 7 10 11 14 15 15 14 13 9 9 10 11 14 15 16 16 9 6 5 2 1 4 4 3 3 4 2 2 3 4
Wind_Direction
139 134 143 143 130 141 147 157 153 164 167 205 221 126 137 132 136 136 138 142 146 151 151 150 150 147 144 147 147 146 142 143 134 138 134 135 126 121 120 112 105 103 98
144 142 147 142 145 160 158 161 167 174 177 185 202 125 139 138 141 144 138 146 152 155 160 158 162 161 160 159 157 159 154 154 153 154 153 147 139 133 125 123 119 112 112
145 147 155 153 157 172 163 168 181 178 147 181 155 133 142 139 147 147 146 151 162 164 164 172 174 177 175 171 176 177 176 173 172 177 170 172 164 159 153 152 150 143 141
152 157 164 161 161 179 169 177 179 158 155 157 145 135 141 146 152 160 159 164 168 170 180 179 184 188 191 188 189 192 191 192 192 199 191 190 190 184 183 182 182 185 185
170 165 169 168 168 179 171 174 175 146 154 147 151 149 137 145 155 161 170 175 179 177 178 196 191 191 196 199 202 199 204 200 206 207 207 205 205 200 202 204 204 210 212
182 169 170 167 170 178 170 162 159 147 157 158 161 156 182 149 164 169 176 181 186 186 190 196 198 204 197 204 207 208 209 207 211 215 215 214 214 212 213 214 213 216 221
168 152 156 156 150 164 172 169 145 146 146 154 110 59 3 192 188 187 170 184 186 195 192 200 199 202 206 208 210 216 218 215 215 216 219 219 219 220 219 218 221 228 230
158 149 135 135 146 138 164 158 126 119 145 153 142 125 161 324 267 224 208 180 191 195 196 201 199 201 203 207 212 218 223 220 221 218 220 219 220 223 224 223 223 227 231
155 149 133 143 187 149 175 164 139 139 134 241 155 148 127 207 154 218 226 212 199 188 190 204 201 202 203 205 210 218 222 224 223 224 219 216 216 219 222 224 225 228 231
162 141 154 165 175 183 147 155 147 124 144 201 168 221 143 148 169 205 298 220 202 210 210 196 198 204 203 207 210 214 214 217 221 225 227 222 215 216 218 223 226 231 234
174 169 153 171 167 155 164 166 163 184 174 161 183 175 168 159 159 133 231 258 201 219 214 204 200 202 211 214 216 221 217 215 220 223 226 230 224 220 220 221 225 229 234
189 184 167 168 176 177 178 187 181 194 181 187 185 179 176 171 193 160 173 214 199 227 213 210 215 219 215 213 218 216 215 218 217 222 225 227 228 228 225 226 230 235 239
178 185 184 175 173 200 201 188 194 197 188 209 197 200 201 201 160 171 154 217 203 235 236 226 224 224 223 219 228 225 227 224 220 221 224 228 231 233 232 231 230 236 245
192 197 190 197 186 192 202 189 184 195 204 211 212 205 204 209 189 177 195 172 264 238 235 238 219 222 225 216 225 233 240 216 325 324 251 245 247 240 237 235 237 248 255
197 176 196 206 211 209 204 200 201 197 190 202 211 218 215 227 228 213 214 205 221 242 233 246 234 220 227 219 222 205 201 188 195 193 198 207 210 215 217 218 220 225 233
209 208 191 194 204 213 210 211 214 210 201 216 218 215 218 221 210 213 223 222 212 229 252 210 225 219 211 218 208 205 226 206 204 202 198 203 210 215 210 206 208 213 220
212 214 209 207 203 206 211 215 216 215 216 223 224 217 224 222 222 223 215 221 230 226 246 252 217 216 221 219 220 216 217 220 228 210 198 201 212 211 210 212 211 214 216
214 214 217 216 219 218 216 219 218 215 214 218 219 220 225 217 219 216 216 223 228 230 235 249 233 194 205 216 215 211 222 229 231 223 216 211 204 203 208 207 204 209 214
216 215 215 220 221 220 221 221 221 220 221 222 222 217 224 217 224 223 223 228 227 228 233 244 250 188 199 152 205 220 212 225 232 233 212 207 197 207 205 201 198 203 217
215 220 220 220 221 221 224 226 223 223 224 226 225 224 223 221 224 227 227 226 228 227 225 233 243 209 204 196 208 211 218 214 216 216 206 202 184 193 207 195 196 209 218
221 221 220 222 220 221 223 219 222 225 228 231 230 229 228 227 225 225 224 230 231 230 233 239 237 192 193 181 203 206 223 195 191 158 167 183 183 197 202 210 212 209 219
224 221 226 225 223 225 225 215 216 223 226 226 228 227 228 224 228 226 224 228 228 222 231 232 232 230 226 216 194 187 166 146 181 205 148 240 216 192 211 202 207 210 221
212 220 226 225 230 230 224 214 214 227 225 226 228 229 228 229 219 223 108 99 57 27 17 252 238 242 143 155 138 135 136 129 128 98 65 246 68 84 54 338 272 245 206
215 217 220 224 228 231 224 219 215 221 231 233 229 228 230 223 197 159 134 97 68 45 26 54 67 67 71 62 64 67 92 63 38 64 87 88 329 319 360 344 307 318 273
216 217 219 223 224 231 214 212 194 215 228 82 52 34 99 124 133 134 123 114 101 84 75 81 83 78 65 58 62 71 60 59 87 357 18 89 7 317 259 238 284 41 11
215 216 139 59 42 119 34 230 211 155 126 114 83 69 76 108 109 120 122 125 108 110 101 80 82 77 71 78 67 67 86 70 49 54 13 21 16 9 330 352 11 26 9